Location: Владивосток
(43.1151°N, 131.8856°E)
Time: 00:30:41
(UTC+10:00)

DUCHIFAT 1 - Pass Details

Date: 04 July 2022
Orbit: 580 x 596 km, 98.0° (Epoch: 08 August)

Event Time Altitude Azimuth Distance (km) Brightness Sun altitude
Rises 03:09:46 0° 23° (NNE) 2,844 ? -19.0°
Reaches altitude 10° 03:12:08 10° 33° (NNE) 1,939 ? -18.8°
Maximum altitude 03:15:54 31° 97° (E) 1,049 ? -18.5°
Enters shadow 03:18:21 18° 149° (SSE) 1,490 ? -18.3°
